Погода в Коста-дель-Соль

Испания     36°39′50″N   4°31′15″W
темп.,
°C
ветер,
м/с
пор.,
м/с
влажн.,
%
обл.,
%
осадки,
мм/ч
давл.,
гПа
погр.,
м
19 сентября, вс
вс1923:00+26ссз36360 0.0 1014283
02:00+24ссз34430 0.0 1014125
05:00+22ссз33450 0.0 101593
08:00+21ссз23455 0.0 101566
11:00+26юв12340 0.0 1017479
14:00+28юв44440 0.0 10171065
17:00+27юв56470 0.0 1016846
20:00+25юв22611 0.0 1017371
20 сентября, пн
пн2023:00+23юв138333 0.0 1019324
02:00+22юв128222 0.1 1018365
05:00+22в128249 0.1 1017387
08:00+22юв118055 0.1 1018376
11:00+24ююв116945 0.0 1018716
14:00+27ююв42539 0.0 10171351
17:00+27ююв43570 0.0 1015794
20:00+25юв22661 0.0 1015353
21 сентября, вт
вт2123:00+22юв22793 0.0 1016257
02:00+21вюв128652 0.4 1016301
05:00+21вюв128439 0.5 1015371
08:00+20в128414 1.4 1016272
11:00+22юв457046 1.6 1017871
14:00+24юв566148 2.1 10171082
17:00+24юв565931 0.1 10161172
20:00+22юв246745 0.2 1016862
22 сентября, ср
ср2223:00+21юв457531 0.4 1017611
02:00+20вюв367464 1.4 1017705
05:00+20сз01750 0.2 1015192
08:00+19зсз11760 0.2 101597
11:00+22ююв336731 0.1 1016865
14:00+24ююв455521 0.1 10151227
17:00+24ююв455730 0.1 10141043
20:00+23ююв236316 0.1 1014587
23 сентября, чт
чт2323:00+21ююв12684 0.1 1014375
02:00+20зсз01771 2.3 1014261
05:00+18сз118315 5.1 1012101
08:00+18сз128640 9.8 101293
11:00+21юв127052 2.6 1013447
14:00+23юв346016 5.4 1013842
17:00+24ююв35565 1.2 1011970
20:00+21ююв33725 3.8 1012286